Location: Wingville
(42.9917°N, 90.4915°W)
Time: 19:31:50
(UTC+00:00)

Cosmos 1805 Rocket - Pass Details

Date: 09 December 2022
Orbit: 605 x 629 km, 82.5° (Epoch: 28 January)

Event Time Altitude Azimuth Distance (km) Brightness Sun altitude
Rises 12:13:54 0° 158° (SSE) 2,853 7.6 -12.0°
Reaches altitude 10° 12:16:21 10° 146° (SE) 1,958 7.0 -11.5°
Maximum altitude 12:19:58 27° 89° (E) 1,200 5.9 -10.9°
Drops below altitude 10° 12:23:38 10° 32° (NNE) 1,983 6.3 -10.3°
Sets 12:26:07 0° 20° (NNE) 2,898 7.0 -9.9°
